[[{"header":{"parameterUnit":"m.s-1","parameterCategory":2,"la1":30.2991,"la2":30.254,"lo1":-89.0895,"lo2":-89.0444,"dy":0.0017,"dx":0.0017,"nx":28,"ny":28,"refTime":"2024-02-05T09:00:00:Z","depth":"0","parameterNumber":2,"parameterNumberName":"U-component_of_CURRENTS"},"data":[0,0,0,0,0,0,0,0,0,0,0,0,0,0,0,0,0,0,0,0,0,0,0,0,0,0,0,0,0,0,0,0,0,0,0,0,0,0,0,0,0,0,0,0,0,0,0,0,0,0,0,0,0,0,0,0,0,0,-0.2738,-0.2738,0,-0.2754,-0.2754,-0.2754,-0.2727,-0.2726,-0.2726,-0.2725,-0.2705,-0.2705,-0.2706,0,0,0,0,0,0,0,0,0,0,0,0,0,-0.2686,-0.2687,-0.2738,-0.2738,-0.2738,-0.2754,-0.2754,-0.2754,-0.2727,-0.2726,-0.2726,-0.2725,-0.2705,-0.2705,-0.2706,0,0,0,0,0,0,0,0,0,0,0,0,0,-0.2704,-0.2687,-0.2738,-0.2729,-0.2728,-0.2754,-0.2754,-0.2754,-0.2727,-0.2726,-0.2725,-0.2724,-0.2705,-0.2705,-0.2706,-0.2728,0,0,-0.2706,-0.2706,0,0,0,0,0,0,0,0,-0.2703,-0.2705,-0.273,-0.2729,-0.2729,-0.274,-0.2729,-0.2744,-0.2728,-0.2725,-0.2725,-0.2724,-0.2716,-0.2715,-0.2718,-0.2727,-0.2726,-0.2706,-0.2706,-0.2706,-0.2706,0,0,0,0,0,0,0,-0.2701,-0.2704,-0.2742,-0.273,-0.273,-0.2725,-0.2726,-0.2731,-0.2724,-0.2725,-0.2724,-0.273,-0.2715,-0.2718,-0.2717,-0.2726,-0.2706,-0.2706,-0.2706,-0.2707,-0.2746,-0.2747,0,0,0,0,0,0,-0.2705,-0.2704,-0.2741,-0.2743,-0.2716,-0.2727,-0.2728,-0.2735,-0.2724,-0.2723,-0.2731,-0.2729,-0.2718,-0.2717,-0.2716,-0.2735,-0.2706,-0.2707,-0.2707,-0.2745,-0.2746,-0.2747,0,0,0,0,0,0,-0.2704,-0.2709,-0.2741,-0.2725,-0.2729,-0.2729,-0.2737,-0.2736,-0.2735,-0.2729,-0.2726,-0.2731,-0.2717,-0.2716,-0.272,-0.2734,-0.2707,-0.2707,-0.2744,-0.2745,-0.2746,-0.2777,0,0,0,0,0,0,-0.2703,-0.2708,-0.2711,-0.2725,-0.273,-0.2758,-0.2739,-0.2737,-0.2742,-0.2739,-0.2729,-0.2726,-0.2716,-0.272,-0.2721,-0.2734,-0.2707,-0.2742,-0.2744,-0.2746,-0.2774,-0.2779,-0.2783,0,0,0,0,0,-0.2701,-0.271,-0.2711,-0.2715,-0.2735,-0.2759,-0.2761,-0.2755,-0.2743,-0.2749,-0.274,-0.2726,-0.2731,-0.2721,-0.2722,-0.2735,-0.2742,-0.2744,-0.2746,-0.2773,-0.2778,-0.2782,0,0,0,0,0,0,-0.2685,-0.2709,-0.271,-0.2725,-0.2742,-0.2755,-0.2758,-0.2759,-0.2757,-0.2749,-0.2738,-0.2735,-0.2745,-0.2739,-0.2728,-0.2752,-0.2735,-0.2737,-0.2755,-0.276,-0.2764,-0.277,-0.2707,0,0,0,0,0,-0.2686,-0.2698,-0.2722,-0.2732,-0.2742,-0.2751,-0.2758,-0.2759,-0.2763,-0.2761,-0.2755,-0.2751,-0.2757,-0.2756,-0.2759,-0.2773,-0.2765,-0.2782,-0.2786,-0.279,-0.2795,-0.2793,-0.2797,-0.2754,-0.2754,-0.2754,0,0,-0.2681,-0.2696,-0.2701,-0.2729,-0.2738,-0.2762,-0.2751,-0.2766,-0.2783,-0.276,-0.2772,-0.2766,-0.2764,-0.2778,-0.2782,-0.2772,-0.2799,-0.2792,-0.2795,-0.2799,-0.2795,-0.2799,-0.2803,-0.2755,-0.2755,-0.2755,0,0,-0.2683,-0.2693,-0.2707,-0.2729,-0.2753,-0.2764,-0.2771,-0.2789,-0.2792,-0.2809,-0.2797,-0.28,-0.2806,-0.2809,-0.2811,-0.2842,-0.2822,-0.2842,-0.2865,-0.2862,-0.2866,-0.2868,-0.2868,-0.287,-0.2842,-0.2842,-0.2842,0,-0.2675,-0.2699,-0.2714,-0.2741,-0.276,-0.2768,-0.2794,-0.2808,-0.2823,-0.283,-0.2815,-0.2827,-0.2823,-0.2844,-0.2853,-0.2851,-0.2844,-0.2844,-0.2867,-0.2869,-0.2872,-0.287,-0.2872,-0.2844,-0.2844,-0.2843,-0.2843,0,-0.2694,-0.2717,-0.2728,-0.2765,-0.2789,-0.281,-0.284,-0.2855,-0.2857,-0.2866,-0.2882,-0.2876,-0.288,-0.2883,-0.2877,-0.2897,-0.2886,-0.2872,-0.2852,-0.2878,-0.2875,-0.2876,-0.2846,-0.2846,-0.2845,-0.2845,0,0,-0.2662,-0.2728,-0.273,-0.2755,-0.2804,-0.2823,-0.2862,-0.2896,-0.2914,-0.292,-0.294,-0.2947,-0.2934,-0.2936,-0.2928,-0.2929,-0.294,-0.2908,-0.2908,-0.2904,-0.2934,-0.2944,-0.2946,-0.2925,-0.2925,-0.2925,-0.2926,0,-0.2669,-0.2716,-0.2754,-0.2799,-0.2825,-0.2862,-0.2896,-0.2928,-0.2947,-0.2969,-0.2967,-0.2978,-0.2958,-0.2955,-0.2956,-0.2947,-0.2945,-0.2941,-0.2914,-0.2913,-0.2914,-0.2949,-0.2886,-0.2883,-0.2928,-0.2928,-0.2928,0,-0.2669,-0.2704,-0.2747,-0.2816,-0.2831,-0.2857,-0.2909,-0.2946,-0.2988,-0.3,-0.3013,-0.3012,-0.3024,-0.2996,-0.2991,-0.2987,-0.2964,-0.2952,-0.2951,-0.2951,-0.2926,-0.2865,-0.2885,-0.2862,-0.2931,-0.2931,-0.293,0,-0.2622,-0.2697,-0.2727,-0.2752,-0.2829,-0.285,-0.2887,-0.294,-0.2977,-0.3015,-0.3035,-0.3045,-0.3049,-0.3029,-0.3012,-0.2997,-0.3004,-0.2977,-0.2964,-0.2964,-0.2902,-0.2897,-0.2893,-0.2967,-0.2967,-0.2967,-0.2967,0,-0.2607,-0.263,-0.2703,-0.2719,-0.2754,-0.282,-0.2859,-0.29,-0.2965,-0.3002,-0.3037,-0.3064,-0.3055,-0.3063,-0.3032,-0.3016,-0.3016,-0.298,-0.297,-0.2913,-0.2908,-0.2878,-0.2872,-0.2967,-0.2967,-0.2967,-0.2967,0,-0.2542,-0.2595,-0.2631,-0.2707,-0.273,-0.2748,-0.2838,-0.2865,-0.2939,-0.2991,-0.3004,-0.3078,-0.3099,-0.3097,-0.3078,-0.3044,-0.2979,-0.3011,-0.2952,-0.2936,-0.2903,-0.2901,-0.2853,-0.2768,-0.2997,-0.2997,-0.2997,0,-0.2509,-0.2519,-0.2596,-0.2612,-0.264,-0.2688,-0.2716,-0.282,-0.2862,-0.2993,-0.3008,-0.3078,-0.311,-0.312,-0.3093,-0.3062,-0.2991,-0.2964,-0.2928,-0.291,-0.2898,-0.2855,-0.2782,-0.2853,-0.2852,-0.2851,-0.2851,0,-0.2431,-0.2455,-0.248,-0.2517,-0.2547,-0.2593,-0.2651,-0.2691,-0.2813,-0.289,-0.2984,-0.3036,-0.31,-0.3084,-0.3074,-0.3023,-0.2899,-0.2949,-0.2932,-0.2801,-0.2747,-0.2658,-0.2851,-0.2844,-0.2845,-0.2845,-0.2845,-0.2846,-0.2347,-0.2346,-0.2375,-0.2398,-0.2435,-0.2461,-0.2464,-0.2571,-0.265,-0.277,-0.2893,-0.3008,-0.3048,-0.3056,-0.3,-0.2911,-0.2881,-0.2816,-0.2819,-0.278,-0.2689,-0.2885,-0.287,-0.287,-0.2871,-0.2872,-0.2872,0,-0.2232,-0.224,-0.2255,-0.2275,-0.226,-0.2326,-0.2383,-0.2385,-0.2451,-0.267,-0.278,-0.2994,-0.2972,-0.2994,-0.2943,-0.2813,-0.2682,-0.2715,-0.2623,-0.2553,-0.2729,-0.2715,-0.2663,-0.2663,-0.2663,-0.2663,-0.2663,-0.2663,-0.2167,-0.213,-0.2142,-0.2075,-0.2091,-0.2038,-0.2043,-0.2096,-0.2226,-0.2448,-0.2699,-0.2931,-0.2971,-0.3105,-0.2931,-0.2771,-0.2615,-0.2542,-0.2503,-0.2639,-0.2647,-0.2656,-0.2641,-0.2574,-0.2573,-0.2245,-0.2243,-0.2241]},{"header":{"parameterUnit":"m.s-1","parameterCategory":2,"la1":30.2991,"la2":30.254,"lo1":-89.0895,"lo2":-89.0444,"dy":0.0017,"dx":0.0017,"nx":28,"ny":28,"refTime":"2024-02-05T09:00:00:Z","depth":"0","parameterNumber":3,"parameterNumberName":"V-component_of_CURRENTS"},"data":[0,0,0,0,0,0,0,0,0,0,0,0,0,0,0,0,0,0,0,0,0,0,0,0,0,0,0,0,0,0,0,0,0,0,0,0,0,0,0,0,0,0,0,0,0,0,0,0,0,0,0,0,0,0,0,0,0,0,-0.0471,-0.0471,0,-0.0397,-0.0396,-0.0395,-0.0347,-0.0347,-0.0346,-0.0346,-0.0232,-0.0229,-0.0227,0,0,0,0,0,0,0,0,0,0,0,0,0,-0.0524,-0.0524,-0.0471,-0.0471,-0.047,-0.0397,-0.0396,-0.0395,-0.0347,-0.0347,-0.0346,-0.0346,-0.0233,-0.023,-0.0226,0,0,0,0,0,0,0,0,0,0,0,0,0,-0.0481,-0.0524,-0.0472,-0.0437,-0.0433,-0.0397,-0.0396,-0.0395,-0.0347,-0.0347,-0.0346,-0.0346,-0.0234,-0.023,-0.0226,-0.0208,0,0,-0.0213,-0.0211,0,0,0,0,0,0,0,0,-0.0483,-0.0479,-0.0443,-0.044,-0.0435,-0.0381,-0.0373,-0.0331,-0.0347,-0.0379,-0.0346,-0.0346,-0.0279,-0.0271,-0.0258,-0.0203,-0.0198,-0.0213,-0.021,-0.0209,-0.0207,0,0,0,0,0,0,0,-0.0486,-0.0481,-0.0442,-0.0442,-0.0437,-0.0409,-0.0403,-0.0365,-0.0331,-0.0377,-0.0373,-0.0365,-0.0276,-0.0262,-0.0255,-0.0196,-0.0213,-0.0209,-0.0207,-0.0205,-0.0115,-0.0115,0,0,0,0,0,0,-0.0499,-0.0484,-0.0444,-0.0439,-0.0459,-0.0409,-0.0402,-0.0399,-0.0332,-0.0322,-0.0366,-0.0364,-0.0269,-0.026,-0.0251,-0.0227,-0.0209,-0.0205,-0.0202,-0.0115,-0.0115,-0.0115,0,0,0,0,0,0,-0.0501,-0.0497,-0.0447,-0.046,-0.0452,-0.0409,-0.0405,-0.0397,-0.0383,-0.0325,-0.0314,-0.036,-0.0269,-0.0256,-0.022,-0.0222,-0.0203,-0.0199,-0.0115,-0.0115,-0.0115,-0.0179,0,0,0,0,0,0,-0.0503,-0.0498,-0.0501,-0.0461,-0.0452,-0.0431,-0.0405,-0.0396,-0.0379,-0.0375,-0.0316,-0.0305,-0.0267,-0.0226,-0.0216,-0.0216,-0.0196,-0.0115,-0.0115,-0.0115,-0.0176,-0.0181,-0.0185,0,0,0,0,0,-0.0505,-0.0513,-0.0502,-0.0497,-0.0458,-0.0432,-0.0424,-0.0391,-0.038,-0.0377,-0.0337,-0.0307,-0.022,-0.0223,-0.021,-0.021,-0.0115,-0.0115,-0.0115,-0.0175,-0.018,-0.0185,0,0,0,0,0,0,-0.0537,-0.0507,-0.0495,-0.0493,-0.0468,-0.0424,-0.0419,-0.0397,-0.0364,-0.0361,-0.0306,-0.0293,-0.0262,-0.0228,-0.0232,-0.0184,-0.0163,-0.0161,-0.0212,-0.0217,-0.0221,-0.0231,-0.0192,0,0,0,0,0,-0.0548,-0.0546,-0.0511,-0.051,-0.0501,-0.0462,-0.0448,-0.0426,-0.0391,-0.0376,-0.0334,-0.0291,-0.0254,-0.023,-0.0193,-0.0165,-0.0128,-0.0156,-0.016,-0.0164,-0.0163,-0.0114,-0.0113,-0.0116,-0.0116,-0.0116,0,0,-0.056,-0.0544,-0.0542,-0.0517,-0.0496,-0.0488,-0.0453,-0.0437,-0.0427,-0.0369,-0.0344,-0.0305,-0.0251,-0.0221,-0.0204,-0.0192,-0.0145,-0.0165,-0.0168,-0.0165,-0.0114,-0.0114,-0.0113,-0.0116,-0.0116,-0.0116,0,0,-0.0589,-0.0571,-0.0582,-0.0563,-0.0537,-0.0511,-0.0511,-0.047,-0.0449,-0.0421,-0.0378,-0.0341,-0.0284,-0.0244,-0.0218,-0.0221,-0.0172,-0.0211,-0.0235,-0.0187,-0.0187,-0.0186,-0.0146,-0.0141,-0.021,-0.021,-0.021,0,-0.0607,-0.0614,-0.058,-0.0584,-0.0574,-0.0527,-0.0534,-0.0504,-0.0456,-0.0438,-0.0423,-0.0336,-0.0294,-0.025,-0.0253,-0.0231,-0.0198,-0.0222,-0.0193,-0.0191,-0.0189,-0.0148,-0.0142,-0.0213,-0.0213,-0.0213,-0.0212,0,-0.0642,-0.0646,-0.0651,-0.0641,-0.0623,-0.0622,-0.0578,-0.0563,-0.0532,-0.0492,-0.0445,-0.0384,-0.0331,-0.0314,-0.0283,-0.0247,-0.0228,-0.0209,-0.0184,-0.0193,-0.0149,-0.0141,-0.0218,-0.0217,-0.0216,-0.0215,0,0,-0.0687,-0.0681,-0.0681,-0.069,-0.0655,-0.0647,-0.0632,-0.06,-0.0588,-0.0531,-0.0503,-0.0437,-0.0394,-0.036,-0.0313,-0.027,-0.0231,-0.0238,-0.0234,-0.0205,-0.013,-0.0079,-0.0065,-0.0207,-0.0206,-0.0205,-0.0108,0,-0.0729,-0.0763,-0.0734,-0.0754,-0.0768,-0.0719,-0.0711,-0.067,-0.0621,-0.058,-0.0502,-0.0455,-0.0412,-0.0388,-0.0338,-0.0253,-0.0212,-0.026,-0.012,-0.0115,-0.0073,-0.0054,-0.0033,0.0058,-0.01,-0.0099,-0.0098,0,-0.0771,-0.0792,-0.0827,-0.0825,-0.0824,-0.0821,-0.0795,-0.0773,-0.0697,-0.0659,-0.0587,-0.0517,-0.0436,-0.0406,-0.0264,-0.0296,-0.0223,-0.0159,-0.0153,-0.0076,-0.0049,0.0045,0.0079,0.022,-0.0085,-0.0086,-0.0087,0,-0.0834,-0.0849,-0.0884,-0.0883,-0.0873,-0.0876,-0.0861,-0.0801,-0.0784,-0.0697,-0.0671,-0.0556,-0.0497,-0.0388,-0.0245,-0.0256,-0.0089,-0.0085,0.0029,0.0033,0.0095,0.0103,0.0279,0.0004,0.0004,0.0004,0.0003,0,-0.0893,-0.0916,-0.0921,-0.0941,-0.0981,-0.0936,-0.0948,-0.0915,-0.0856,-0.0834,-0.0712,-0.067,-0.0491,-0.0368,-0.0252,-0.0073,-0.0088,0.0034,0.0068,0.0073,0.0077,0.0239,0.0325,0.0007,0.0006,0.0006,0.0005,0,-0.0954,-0.0956,-0.1,-0.101,-0.1015,-0.104,-0.1025,-0.1029,-0.0957,-0.0923,-0.0899,-0.0744,-0.0573,-0.0385,-0.019,-0.0077,0.0184,0.0139,0.0133,0.0165,0.0397,0.0478,0.0734,0.0785,0.0279,0.0281,0.0283,0,-0.0991,-0.1022,-0.1063,-0.1101,-0.1108,-0.1133,-0.1156,-0.1098,-0.1089,-0.0974,-0.0966,-0.0782,-0.0659,-0.0329,-0.0081,0.016,0.0275,0.0313,0.03,0.043,0.0545,0.0609,0.0635,0.0352,0.0354,0.0356,0.0357,0,-0.1059,-0.1071,-0.1111,-0.1196,-0.1235,-0.1273,-0.1286,-0.1295,-0.1216,-0.1178,-0.1084,-0.097,-0.061,-0.0305,0.0047,0.0192,0.0442,0.0355,0.0498,0.0634,0.0709,0.0766,0.0261,0.0373,0.0371,0.037,0.0369,0.0369,-0.1102,-0.1155,-0.1212,-0.1288,-0.1341,-0.1395,-0.1434,-0.143,-0.1423,-0.1341,-0.1192,-0.1008,-0.0482,0.0026,0.0194,0.0602,0.0581,0.0699,0.079,0.0844,0.0898,0.0427,0.0572,0.0571,0.0571,0.0571,0.057,0,-0.116,-0.1219,-0.13,-0.1389,-0.1466,-0.1466,-0.151,-0.1539,-0.1553,-0.1415,-0.1297,-0.0745,-0.026,0.0215,0.0835,0.1026,0.1042,0.1124,0.1211,0.1214,0.0805,0.081,0.1003,0.1002,0.1002,0.1002,0.1002,0.1002,-0.1192,-0.1286,-0.1334,-0.1475,-0.1537,-0.1628,-0.1658,-0.1686,-0.1614,-0.1407,-0.1115,-0.0862,-0.0061,0.1009,0.1515,0.151,0.1638,0.1644,0.1708,0.1422,0.1388,0.1355,0.1379,0.1688,0.1689,0.2056,0.206,0.2063]}],[{"header":{"parameterUnit":"m.s-1","parameterCategory":2,"la1":30.2991,"la2":30.254,"lo1":-89.0895,"lo2":-89.0444,"dy":0.0017,"dx":0.0017,"nx":28,"ny":28,"refTime":"2024-02-05T09:00:00:Z","depth":"2","parameterNumber":2,"parameterNumberName":"U-component_of_CURRENTS"},"data":[0,0,0,0,0,0,0,0,0,0,0,0,0,0,0,0,0,0,0,0,0,0,0,0,0,0,0,0,0,0,0,0,0,0,0,0,0,0,0,0,0,0,0,0,0,0,0,0,0,0,0,0,0,0,0,0,0,0,-0.2673,-0.2674,0,-0.269,-0.269,-0.269,-0.2666,-0.2665,-0.2664,-0.2664,-0.2647,-0.2647,-0.2647,0,0,0,0,0,0,0,0,0,0,0,0,0,-0.2623,-0.2624,-0.2673,-0.2674,-0.2674,-0.269,-0.269,-0.269,-0.2666,-0.2665,-0.2664,-0.2663,-0.2647,-0.2647,-0.2647,0,0,0,0,0,0,0,0,0,0,0,0,0,-0.264,-0.2624,-0.2673,-0.2666,-0.2666,-0.269,-0.269,-0.269,-0.2666,-0.2665,-0.2664,-0.2663,-0.2647,-0.2647,-0.2647,-0.2667,0,0,-0.2648,-0.2648,0,0,0,0,0,0,0,0,-0.2639,-0.2642,-0.2667,-0.2667,-0.2666,-0.2677,-0.2666,-0.2681,-0.2666,-0.2663,-0.2664,-0.2663,-0.2656,-0.2655,-0.2657,-0.2666,-0.2665,-0.2648,-0.2648,-0.2648,-0.2648,0,0,0,0,0,0,0,-0.2638,-0.2641,-0.2677,-0.2667,-0.2667,-0.2662,-0.2663,-0.2668,-0.2662,-0.2663,-0.2662,-0.2668,-0.2655,-0.2657,-0.2657,-0.2665,-0.2648,-0.2648,-0.2648,-0.2648,-0.2687,-0.2688,0,0,0,0,0,0,-0.2642,-0.264,-0.2677,-0.2678,-0.2653,-0.2664,-0.2665,-0.2672,-0.2663,-0.2661,-0.2669,-0.2667,-0.2658,-0.2657,-0.2656,-0.2677,-0.2648,-0.2648,-0.2648,-0.2686,-0.2687,-0.2688,0,0,0,0,0,0,-0.2641,-0.2645,-0.2676,-0.2661,-0.2665,-0.2666,-0.2674,-0.2673,-0.2674,-0.2668,-0.2665,-0.267,-0.2657,-0.2656,-0.2662,-0.2676,-0.2648,-0.2648,-0.2685,-0.2686,-0.2688,-0.2719,0,0,0,0,0,0,-0.2639,-0.2645,-0.2648,-0.2662,-0.2666,-0.2693,-0.2675,-0.2674,-0.268,-0.2678,-0.2669,-0.2666,-0.2656,-0.2662,-0.2662,-0.2675,-0.2648,-0.2684,-0.2686,-0.2687,-0.2717,-0.2721,-0.2725,0,0,0,0,0,-0.2638,-0.2647,-0.2648,-0.2653,-0.2672,-0.2694,-0.2696,-0.2692,-0.2681,-0.2687,-0.2679,-0.2666,-0.2673,-0.2663,-0.2663,-0.2677,-0.2683,-0.2685,-0.2687,-0.2715,-0.2721,-0.2725,0,0,0,0,0,0,-0.2623,-0.2646,-0.2647,-0.2662,-0.2679,-0.2691,-0.2695,-0.2696,-0.2696,-0.2689,-0.2678,-0.2675,-0.2687,-0.268,-0.2669,-0.2694,-0.2676,-0.2678,-0.2698,-0.2703,-0.2707,-0.2712,-0.2649,0,0,0,0,0,-0.2624,-0.2636,-0.2659,-0.2669,-0.2679,-0.2688,-0.2695,-0.2697,-0.2702,-0.27,-0.2696,-0.2692,-0.2698,-0.2698,-0.27,-0.2714,-0.2706,-0.2724,-0.2728,-0.2732,-0.2737,-0.2735,-0.274,-0.2695,-0.2695,-0.2695,0,0,-0.2619,-0.2635,-0.2639,-0.2667,-0.2676,-0.2699,-0.2689,-0.2704,-0.2722,-0.2699,-0.2713,-0.2707,-0.2705,-0.2719,-0.2724,-0.2714,-0.2742,-0.2735,-0.2737,-0.2741,-0.2738,-0.2742,-0.2746,-0.2696,-0.2696,-0.2696,0,0,-0.2622,-0.2632,-0.2646,-0.2668,-0.2692,-0.2703,-0.271,-0.2728,-0.2732,-0.275,-0.2739,-0.2742,-0.2748,-0.2751,-0.2753,-0.2784,-0.2765,-0.2785,-0.2808,-0.2807,-0.281,-0.2813,-0.2812,-0.2814,-0.2785,-0.2785,-0.2785,0,-0.2616,-0.2639,-0.2653,-0.2679,-0.2698,-0.2707,-0.2732,-0.2746,-0.2762,-0.277,-0.2756,-0.277,-0.2765,-0.2786,-0.2796,-0.2793,-0.2787,-0.2787,-0.2811,-0.2814,-0.2816,-0.2814,-0.2817,-0.2787,-0.2787,-0.2787,-0.2787,0,-0.2634,-0.2656,-0.2668,-0.2704,-0.2727,-0.2749,-0.2778,-0.2794,-0.2797,-0.2807,-0.2824,-0.2818,-0.2823,-0.2826,-0.282,-0.2841,-0.283,-0.2816,-0.2796,-0.2822,-0.2819,-0.2821,-0.279,-0.2789,-0.2789,-0.2788,0,0,-0.2604,-0.2668,-0.267,-0.2694,-0.2743,-0.2761,-0.28,-0.2834,-0.2852,-0.286,-0.2881,-0.2889,-0.2877,-0.2879,-0.2872,-0.2873,-0.2886,-0.2854,-0.2853,-0.2849,-0.2881,-0.2888,-0.289,-0.2871,-0.2872,-0.2872,-0.2873,0,-0.2611,-0.2657,-0.2693,-0.2737,-0.2763,-0.28,-0.2833,-0.2865,-0.2885,-0.2908,-0.2908,-0.2919,-0.2901,-0.2899,-0.29,-0.2893,-0.2892,-0.2887,-0.286,-0.2859,-0.2859,-0.2893,-0.2613,-0.2592,-0.2875,-0.2875,-0.2875,0,-0.2611,-0.2645,-0.2687,-0.2754,-0.2768,-0.2795,-0.2846,-0.2883,-0.2926,-0.2939,-0.2953,-0.2954,-0.2967,-0.294,-0.2937,-0.2933,-0.2911,-0.2899,-0.2898,-0.2895,-0.287,-0.2611,-0.2584,-0.2878,-0.2878,-0.2878,-0.2877,0,-0.2566,-0.2639,-0.2668,-0.2692,-0.2768,-0.2789,-0.2825,-0.2878,-0.2915,-0.2954,-0.2975,-0.2986,-0.2992,-0.2973,-0.2958,-0.2944,-0.2952,-0.2924,-0.2909,-0.2909,-0.2662,-0.264,-0.2915,-0.2915,-0.2915,-0.2915,-0.2915,0,-0.2552,-0.2574,-0.2645,-0.2661,-0.2696,-0.276,-0.2799,-0.2841,-0.2906,-0.2941,-0.2978,-0.3004,-0.2999,-0.3007,-0.2977,-0.2962,-0.2964,-0.2925,-0.2915,-0.2668,-0.2648,-0.2887,-0.2884,-0.2915,-0.2915,-0.2915,-0.2915,0,-0.2488,-0.254,-0.2575,-0.265,-0.2673,-0.2691,-0.278,-0.2806,-0.2881,-0.2931,-0.2945,-0.3019,-0.304,-0.3039,-0.3022,-0.2989,-0.2969,-0.2956,-0.2679,-0.2638,-0.2919,-0.2917,-0.2938,-0.2939,-0.2939,-0.2939,-0.294,0,-0.2456,-0.2466,-0.2542,-0.2557,-0.2586,-0.2633,-0.2661,-0.2764,-0.2804,-0.2933,-0.2947,-0.3017,-0.3042,-0.3053,-0.2979,-0.2937,-0.2992,-0.2679,-0.2613,-0.2936,-0.2924,-0.2922,-0.292,-0.2282,-0.2277,-0.2273,-0.227,0,-0.238,-0.2404,-0.2429,-0.2465,-0.2494,-0.2539,-0.2596,-0.2634,-0.2753,-0.2824,-0.2914,-0.296,-0.2979,-0.2827,-0.2798,-0.273,-0.2669,-0.2599,-0.2971,-0.2356,-0.2328,-0.2313,-0.233,-0.2232,-0.2236,-0.2238,-0.224,-0.2242,-0.2299,-0.2298,-0.2326,-0.2349,-0.2384,-0.2408,-0.2409,-0.2495,-0.2563,-0.2624,-0.2765,-0.275,-0.2709,-0.2558,-0.2438,-0.2335,-0.2529,-0.2375,-0.2382,-0.2395,-0.2356,-0.2333,-0.2229,-0.2233,-0.2236,-0.2239,-0.2241,0,-0.2181,-0.2194,-0.2209,-0.2227,-0.2204,-0.2276,-0.2329,-0.2293,-0.2325,-0.2424,-0.248,-0.224,-0.2159,-0.2139,-0.1919,-0.1903,-0.1814,-0.1819,-0.1662,-0.1702,-0.1737,-0.1659,-0.135,-0.1348,-0.1345,-0.1343,0,0,-0.2115,-0.2076,-0.2086,-0.2015,-0.2036,-0.1968,-0.1969,-0.1951,-0.1976,-0.1945,-0.1945,-0.2101,-0.212,-0.1746,-0.1641,-0.1468,-0.1574,-0.1396,-0.2108,-0.1965,-0.1998,-0.2054,-0.198,0,0,0,0,0]},{"header":{"parameterUnit":"m.s-1","parameterCategory":2,"la1":30.2991,"la2":30.254,"lo1":-89.0895,"lo2":-89.0444,"dy":0.0017,"dx":0.0017,"nx":28,"ny":28,"refTime":"2024-02-05T09:00:00:Z","depth":"2","parameterNumber":3,"parameterNumberName":"V-component_of_CURRENTS"},"data":[0,0,0,0,0,0,0,0,0,0,0,0,0,0,0,0,0,0,0,0,0,0,0,0,0,0,0,0,0,0,0,0,0,0,0,0,0,0,0,0,0,0,0,0,0,0,0,0,0,0,0,0,0,0,0,0,0,0,-0.0393,-0.0392,0,-0.0319,-0.0318,-0.0317,-0.0271,-0.027,-0.027,-0.027,-0.0158,-0.0155,-0.0152,0,0,0,0,0,0,0,0,0,0,0,0,0,-0.0446,-0.0445,-0.0393,-0.0392,-0.0391,-0.0319,-0.0318,-0.0317,-0.0271,-0.027,-0.027,-0.027,-0.0159,-0.0155,-0.0152,0,0,0,0,0,0,0,0,0,0,0,0,0,-0.0402,-0.0445,-0.0393,-0.036,-0.0356,-0.0319,-0.0318,-0.0317,-0.0271,-0.027,-0.027,-0.027,-0.016,-0.0156,-0.0152,-0.0132,0,0,-0.0139,-0.0137,0,0,0,0,0,0,0,0,-0.0405,-0.04,-0.0366,-0.0362,-0.0358,-0.0304,-0.0295,-0.0253,-0.0271,-0.0303,-0.027,-0.027,-0.0204,-0.0196,-0.0183,-0.0127,-0.0122,-0.0138,-0.0136,-0.0134,-0.0133,0,0,0,0,0,0,0,-0.0408,-0.0403,-0.0363,-0.0365,-0.036,-0.0332,-0.0326,-0.0287,-0.0255,-0.03,-0.0296,-0.0289,-0.0201,-0.0187,-0.0179,-0.012,-0.0139,-0.0135,-0.0132,-0.0131,-0.004,-0.0041,0,0,0,0,0,0,-0.0421,-0.0406,-0.0365,-0.0361,-0.0381,-0.0332,-0.0325,-0.0321,-0.0256,-0.0246,-0.0289,-0.0287,-0.0194,-0.0184,-0.0175,-0.0153,-0.0134,-0.013,-0.0128,-0.004,-0.004,-0.0041,0,0,0,0,0,0,-0.0422,-0.0418,-0.0368,-0.0382,-0.0374,-0.0331,-0.0328,-0.032,-0.0307,-0.0249,-0.0238,-0.0284,-0.0193,-0.0181,-0.0145,-0.0148,-0.0128,-0.0125,-0.004,-0.004,-0.0041,-0.0104,0,0,0,0,0,0,-0.0424,-0.0419,-0.0423,-0.0383,-0.0373,-0.0353,-0.0328,-0.0319,-0.0303,-0.0299,-0.0241,-0.023,-0.0192,-0.0152,-0.0141,-0.0142,-0.0121,-0.004,-0.004,-0.004,-0.0102,-0.0107,-0.011,0,0,0,0,0,-0.0426,-0.0434,-0.0424,-0.0419,-0.038,-0.0353,-0.0346,-0.0314,-0.0303,-0.03,-0.0261,-0.0232,-0.0145,-0.0148,-0.0136,-0.0135,-0.004,-0.004,-0.004,-0.01,-0.0106,-0.011,0,0,0,0,0,0,-0.0459,-0.0429,-0.0417,-0.0415,-0.039,-0.0346,-0.0342,-0.032,-0.0287,-0.0285,-0.0231,-0.0217,-0.0188,-0.0153,-0.0158,-0.011,-0.0088,-0.0086,-0.0138,-0.0143,-0.0147,-0.0156,-0.0118,0,0,0,0,0,-0.0469,-0.0468,-0.0432,-0.0432,-0.0423,-0.0384,-0.037,-0.0349,-0.0314,-0.03,-0.0259,-0.0216,-0.0179,-0.0155,-0.0118,-0.009,-0.0053,-0.0081,-0.0086,-0.009,-0.0089,-0.004,-0.0039,-0.0041,-0.0041,-0.0041,0,0,-0.0481,-0.0466,-0.0464,-0.0439,-0.0418,-0.041,-0.0375,-0.036,-0.035,-0.0293,-0.0269,-0.023,-0.0175,-0.0147,-0.013,-0.0117,-0.0071,-0.009,-0.0094,-0.0091,-0.004,-0.0039,-0.0039,-0.0042,-0.0042,-0.0042,0,0,-0.051,-0.0493,-0.0504,-0.0485,-0.0459,-0.0434,-0.0433,-0.0393,-0.0372,-0.0345,-0.0303,-0.0266,-0.0209,-0.017,-0.0143,-0.0147,-0.0098,-0.0137,-0.0161,-0.0113,-0.0113,-0.0112,-0.0073,-0.0068,-0.0136,-0.0136,-0.0136,0,-0.0529,-0.0536,-0.0502,-0.0505,-0.0496,-0.045,-0.0456,-0.0427,-0.038,-0.0362,-0.0347,-0.0262,-0.0219,-0.0175,-0.0178,-0.0156,-0.0124,-0.0148,-0.0119,-0.0118,-0.0115,-0.0076,-0.007,-0.0139,-0.0139,-0.0138,-0.0138,0,-0.0563,-0.0567,-0.0572,-0.0562,-0.0544,-0.0543,-0.0499,-0.0484,-0.0455,-0.0415,-0.0369,-0.0309,-0.0256,-0.0239,-0.0209,-0.0173,-0.0155,-0.0135,-0.011,-0.0119,-0.0077,-0.0069,-0.0143,-0.0142,-0.0141,-0.0141,0,0,-0.0609,-0.0601,-0.0602,-0.061,-0.0576,-0.0567,-0.0553,-0.0521,-0.0509,-0.0453,-0.0426,-0.036,-0.0319,-0.0285,-0.0238,-0.0196,-0.0158,-0.0165,-0.0161,-0.0133,-0.0059,-0.001,0.0003,-0.0134,-0.0133,-0.0132,-0.0038,0,-0.065,-0.0683,-0.0654,-0.0673,-0.0687,-0.0639,-0.063,-0.059,-0.0542,-0.0502,-0.0425,-0.0379,-0.0336,-0.0314,-0.0264,-0.018,-0.014,-0.0186,-0.0048,-0.0044,-0.0004,0.0013,-0.0015,0.007,-0.003,-0.0029,-0.0028,0,-0.0692,-0.0711,-0.0746,-0.0743,-0.0742,-0.074,-0.0714,-0.0692,-0.0617,-0.058,-0.051,-0.0441,-0.0361,-0.0331,-0.0191,-0.0223,-0.0151,-0.0088,-0.0082,-0.0007,0.002,0.0066,0.0088,-0.0015,-0.0016,-0.0017,-0.0018,0,-0.0755,-0.0769,-0.0803,-0.0801,-0.0791,-0.0794,-0.078,-0.0721,-0.0703,-0.0619,-0.0594,-0.0481,-0.0423,-0.0316,-0.0175,-0.0185,-0.002,-0.0015,0.0095,0.0099,0.0119,0.0123,0.0073,0.0073,0.0073,0.0072,0.0072,0,-0.0812,-0.0836,-0.084,-0.086,-0.09,-0.0855,-0.0868,-0.0835,-0.0777,-0.0755,-0.0636,-0.0595,-0.0417,-0.0296,-0.0182,-0.0007,-0.002,0.01,0.0133,0.0095,0.0096,0.0058,0.0055,0.0076,0.0075,0.0074,0.0074,0,-0.0875,-0.0876,-0.0919,-0.0929,-0.0934,-0.0959,-0.0945,-0.0949,-0.0878,-0.0845,-0.0822,-0.0669,-0.0502,-0.0316,-0.0123,-0.0011,0.0143,0.0201,0.0146,0.0172,0.0227,0.0219,0.0332,0.0334,0.0337,0.0339,0.034,0,-0.0911,-0.0941,-0.0982,-0.1019,-0.1027,-0.1052,-0.1075,-0.1018,-0.1009,-0.0897,-0.0888,-0.0709,-0.0588,-0.0263,-0.0023,0.0213,0.0202,0.0318,0.0299,0.0236,0.0257,0.0245,0.0235,0.0293,0.0294,0.0295,0.0296,0,-0.0979,-0.0991,-0.103,-0.1114,-0.1153,-0.1191,-0.1203,-0.1213,-0.1134,-0.1094,-0.1004,-0.0892,-0.0545,-0.0262,0.0083,0.0208,0.0284,0.0344,0.0306,0.0234,0.0208,0.0225,0.0215,0.0303,0.0302,0.0302,0.0302,0.0301,-0.1022,-0.1075,-0.1131,-0.1206,-0.1259,-0.1311,-0.1349,-0.1332,-0.1321,-0.1219,-0.1094,-0.0894,-0.0573,-0.0088,0.0161,0.0392,0.0368,0.0419,0.0413,0.0406,0.0388,0.0367,0.0488,0.0488,0.0489,0.0489,0.0489,0,-0.1073,-0.1139,-0.1219,-0.1306,-0.1372,-0.1382,-0.1425,-0.1421,-0.1413,-0.1263,-0.1136,-0.0786,-0.0433,-0.0108,0.0266,0.049,0.046,0.0523,0.0442,0.0433,0.0425,0.0404,0.0511,0.0512,0.0513,0.0514,0,0,-0.1103,-0.1192,-0.1238,-0.1373,-0.1441,-0.1511,-0.154,-0.151,-0.1408,-0.1267,-0.1099,-0.0826,-0.0432,-0.0151,0.0144,0.0338,0.0322,0.0352,0.0308,0.0169,0.0159,0.0339,0.0295,0,0,0,0,0]}],[{"header":{"parameterUnit":"m.s-1","parameterCategory":2,"la1":30.2991,"la2":30.254,"lo1":-89.0895,"lo2":-89.0444,"dy":0.0017,"dx":0.0017,"nx":28,"ny":28,"refTime":"2024-02-05T09:00:00:Z","depth":"4","parameterNumber":2,"parameterNumberName":"U-component_of_CURRENTS"},"data":[0,0,0,0,0,0,0,0,0,0,0,0,0,0,0,0,0,0,0,0,0,0,0,0,0,0,0,0,0,0,0,0,0,0,0,0,0,0,0,0,0,0,0,0,0,0,0,0,0,0,0,0,0,0,0,0,0,0,-0.1732,-0.1733,0,-0.1787,-0.1787,-0.1788,-0.1828,-0.1828,-0.1829,-0.1829,-0.1888,-0.1889,-0.1891,0,0,0,0,0,0,0,0,0,0,0,0,0,-0.1652,-0.1653,-0.1732,-0.1733,-0.1734,-0.1787,-0.1787,-0.1788,-0.1827,-0.1828,-0.1829,-0.1829,-0.1888,-0.1889,-0.1891,0,0,0,0,0,0,0,0,0,0,0,0,0,-0.1693,-0.1653,-0.1732,-0.1761,-0.1765,-0.1787,-0.1787,-0.1788,-0.1827,-0.1828,-0.1829,-0.183,-0.1888,-0.1889,-0.1891,-0.1886,0,0,-0.1896,-0.1897,0,0,0,0,0,0,0,0,-0.169,-0.1695,-0.1756,-0.1759,-0.1763,-0.1803,-0.1781,-0.1822,-0.1827,-0.1802,-0.1829,-0.183,-0.1861,-0.1865,-0.1871,-0.1889,-0.1891,-0.1896,-0.1897,-0.1898,-0.1898,0,0,0,0,0,0,0,-0.1687,-0.1693,-0.1752,-0.1757,-0.1761,-0.1768,-0.1775,-0.1789,-0.1825,-0.1804,-0.1807,-0.1816,-0.1863,-0.1869,-0.1872,-0.1892,-0.1896,-0.1897,-0.1899,-0.1899,-0.1994,-0.1996,0,0,0,0,0,0,-0.1684,-0.1691,-0.175,-0.1754,-0.173,-0.1769,-0.1777,-0.1788,-0.1825,-0.1832,-0.1815,-0.1818,-0.1866,-0.187,-0.1875,-0.1951,-0.1898,-0.1899,-0.19,-0.1993,-0.1995,-0.1996,0,0,0,0,0,0,-0.1682,-0.1689,-0.1748,-0.1725,-0.1733,-0.177,-0.1782,-0.1789,-0.1827,-0.1834,-0.1841,-0.1851,-0.1866,-0.1872,-0.1917,-0.1951,-0.19,-0.1902,-0.1991,-0.1993,-0.1995,-0.2052,0,0,0,0,0,0,-0.168,-0.1688,-0.1709,-0.1725,-0.1734,-0.1783,-0.1782,-0.1789,-0.183,-0.1835,-0.1866,-0.1871,-0.1868,-0.1914,-0.1918,-0.1952,-0.1903,-0.1989,-0.1992,-0.1995,-0.2048,-0.2056,-0.2063,0,0,0,0,0,-0.1677,-0.1696,-0.171,-0.1718,-0.1757,-0.1784,-0.179,-0.1817,-0.1832,-0.1854,-0.1878,-0.1871,-0.1935,-0.1917,-0.1921,-0.1956,-0.1988,-0.1991,-0.1994,-0.2045,-0.2055,-0.2063,0,0,0,0,0,0,-0.1673,-0.1703,-0.1718,-0.1747,-0.1776,-0.1792,-0.1819,-0.1836,-0.1872,-0.1885,-0.189,-0.1897,-0.1947,-0.1945,-0.1925,-0.1992,-0.1961,-0.1965,-0.1998,-0.2007,-0.2014,-0.2012,-0.1904,0,0,0,0,0,-0.1682,-0.1707,-0.1734,-0.1761,-0.1778,-0.1805,-0.1826,-0.1845,-0.1872,-0.189,-0.1914,-0.1938,-0.1959,-0.1979,-0.1995,-0.2033,-0.2018,-0.2059,-0.2066,-0.2072,-0.2075,-0.2077,-0.2084,-0.2007,-0.2007,-0.2007,0,0,-0.1689,-0.1709,-0.1726,-0.1764,-0.1788,-0.1819,-0.1821,-0.1861,-0.1896,-0.189,-0.1953,-0.1966,-0.1975,-0.2017,-0.204,-0.2024,-0.2088,-0.2076,-0.2082,-0.2081,-0.2081,-0.2089,-0.2095,-0.201,-0.2009,-0.2009,0,0,-0.1705,-0.1736,-0.1761,-0.179,-0.1834,-0.1849,-0.1869,-0.1908,-0.1939,-0.199,-0.1995,-0.203,-0.207,-0.208,-0.2088,-0.2145,-0.2125,-0.2159,-0.2197,-0.22,-0.2206,-0.2211,-0.2206,-0.221,-0.2164,-0.2164,-0.2164,0,-0.1717,-0.1749,-0.1774,-0.1806,-0.1836,-0.1868,-0.1903,-0.1936,-0.1988,-0.2014,-0.2022,-0.2083,-0.2096,-0.2135,-0.216,-0.2162,-0.2157,-0.2162,-0.2208,-0.2213,-0.2217,-0.221,-0.2214,-0.2167,-0.2167,-0.2166,-0.2166,0,-0.1741,-0.1783,-0.1802,-0.1853,-0.1888,-0.1925,-0.1969,-0.2015,-0.2055,-0.208,-0.2141,-0.2157,-0.2189,-0.2204,-0.2203,-0.2246,-0.2231,-0.2214,-0.2183,-0.2228,-0.2218,-0.2221,-0.2172,-0.217,-0.2169,-0.2169,0,0,-0.1719,-0.1803,-0.1814,-0.185,-0.1918,-0.1945,-0.2012,-0.2068,-0.2111,-0.2163,-0.2211,-0.2255,-0.2263,-0.2273,-0.2278,-0.2289,-0.232,-0.2274,-0.2273,-0.2263,-0.2326,-0.2199,-0.219,-0.2313,-0.2314,-0.2314,-0.2308,0,-0.1733,-0.1795,-0.1839,-0.1909,-0.1944,-0.2003,-0.2058,-0.2116,-0.2167,-0.2222,-0.2248,-0.2293,-0.2289,-0.2311,-0.2324,-0.2323,-0.233,-0.2323,-0.2288,-0.2287,-0.2164,-0.219,-0.2317,-0.231,-0.2311,-0.2311,-0.2311,0,-0.1732,-0.1778,-0.1847,-0.1937,-0.196,-0.2011,-0.21,-0.2156,-0.2233,-0.227,-0.2317,-0.2338,-0.2378,-0.2361,-0.2376,-0.2374,-0.2358,-0.2348,-0.2347,-0.2209,-0.2165,-0.2255,-0.2316,-0.2316,-0.2315,-0.2315,-0.2315,0,-0.1681,-0.178,-0.1836,-0.1869,-0.1974,-0.2025,-0.2086,-0.2171,-0.2222,-0.2304,-0.2339,-0.2382,-0.241,-0.2405,-0.2397,-0.2393,-0.2397,-0.2379,-0.2247,-0.2238,-0.2329,-0.2323,-0.2378,-0.2378,-0.2378,-0.2378,-0.2378,0,-0.1654,-0.1704,-0.1824,-0.1853,-0.1924,-0.2011,-0.2088,-0.2153,-0.2245,-0.2285,-0.236,-0.2382,-0.2424,-0.2433,-0.2412,-0.2334,-0.2405,-0.2252,-0.2226,-0.2354,-0.2352,-0.233,-0.2325,-0.2378,-0.2378,-0.2378,-0.2378,0,-0.1578,-0.1662,-0.1731,-0.1857,-0.1901,-0.1951,-0.2083,-0.2124,-0.2229,-0.2284,-0.2312,-0.2397,-0.24,-0.242,-0.2412,-0.2336,-0.2285,-0.2239,-0.2381,-0.2364,-0.2122,-0.212,-0.2082,-0.2077,-0.2074,-0.207,-0.2068,0,-0.154,-0.1571,-0.1712,-0.1754,-0.1817,-0.191,-0.1962,-0.2093,-0.2132,-0.2263,-0.2266,-0.2332,-0.236,-0.2246,-0.2286,-0.223,-0.2203,-0.2161,-0.2134,-0.2112,-0.2091,-0.2095,-0.2098,-0.2061,-0.206,-0.2059,-0.2058,0,-0.1458,-0.1523,-0.1579,-0.1663,-0.1734,-0.1798,-0.1887,-0.1905,-0.2035,-0.2157,-0.2156,-0.2156,-0.2161,-0.215,-0.2125,-0.2084,-0.2179,-0.212,-0.2128,-0.2102,-0.2086,-0.2071,-0.2078,-0.2045,-0.2047,-0.2048,-0.2049,0,-0.1393,-0.141,-0.1489,-0.1545,-0.1629,-0.1646,-0.1718,-0.1761,-0.1821,-0.1975,-0.197,-0.2041,-0.2136,-0.2074,-0.205,-0.2004,-0.1969,-0.1893,-0.1912,-0.1927,-0.1879,-0.1837,-0.1692,0,0,0,0,0,-0.1314,-0.1316,-0.1363,-0.1415,-0.1488,-0.1531,-0.1642,-0.1714,-0.1849,-0.1798,-0.1881,-0.1877,-0.1858,-0.1906,-0.1822,-0.1973,-0.197,-0.1866,-0.1892,-0.1971,-0.1986,-0.1943,0,0,0,0,0,0,-0.126,-0.1298,-0.1312,-0.128,-0.1292,-0.1351,-0.1412,-0.151,-0.1497,-0.1646,-0.1647,-0.1762,-0.1771,-0.1873,-0.1782,-0.1794,-0.177,-0.1927,-0.1922,-0.1962,-0.1976,-0.1988,-0.195,0,0,0,0,0]},{"header":{"parameterUnit":"m.s-1","parameterCategory":2,"la1":30.2991,"la2":30.254,"lo1":-89.0895,"lo2":-89.0444,"dy":0.0017,"dx":0.0017,"nx":28,"ny":28,"refTime":"2024-02-05T09:00:00:Z","depth":"4","parameterNumber":3,"parameterNumberName":"V-component_of_CURRENTS"},"data":[0,0,0,0,0,0,0,0,0,0,0,0,0,0,0,0,0,0,0,0,0,0,0,0,0,0,0,0,0,0,0,0,0,0,0,0,0,0,0,0,0,0,0,0,0,0,0,0,0,0,0,0,0,0,0,0,0,0,-0.0129,-0.0128,0,-0.0082,-0.0082,-0.0081,-0.0052,-0.0052,-0.0052,-0.0052,0.0029,0.0031,0.0033,0,0,0,0,0,0,0,0,0,0,0,0,0,-0.0154,-0.0154,-0.0129,-0.0128,-0.0128,-0.0082,-0.0082,-0.0081,-0.0052,-0.0052,-0.0052,-0.0052,0.0029,0.0031,0.0033,0,0,0,0,0,0,0,0,0,0,0,0,0,-0.0128,-0.0154,-0.0129,-0.0108,-0.0106,-0.0083,-0.0082,-0.0081,-0.0052,-0.0052,-0.0052,-0.0052,0.0028,0.0031,0.0034,0.005,0,0,0.0043,0.0045,0,0,0,0,0,0,0,0,-0.013,-0.0127,-0.0112,-0.011,-0.0107,-0.0073,-0.0061,-0.0036,-0.0053,-0.0072,-0.0052,-0.0052,-0.0002,0.0003,0.0012,0.0053,0.0057,0.0044,0.0045,0.0047,0.0048,0,0,0,0,0,0,0,-0.0132,-0.0129,-0.011,-0.0111,-0.0109,-0.0088,-0.0085,-0.0056,-0.0038,-0.0071,-0.0069,-0.0064,-0.0001,0.0009,0.0014,0.0058,0.0043,0.0046,0.0048,0.0049,0.0112,0.0112,0,0,0,0,0,0,-0.0141,-0.0131,-0.0111,-0.0109,-0.0119,-0.0088,-0.0084,-0.0084,-0.0039,-0.0032,-0.0064,-0.0063,0.0003,0.001,0.0017,0.0028,0.0047,0.005,0.0051,0.0113,0.0112,0.0112,0,0,0,0,0,0,-0.0141,-0.014,-0.0113,-0.0119,-0.0114,-0.0088,-0.0088,-0.0083,-0.0077,-0.0035,-0.0027,-0.0064,0.0004,0.0013,0.0037,0.0032,0.0051,0.0054,0.0113,0.0113,0.0112,0.0058,0,0,0,0,0,0,-0.0142,-0.014,-0.0146,-0.012,-0.0114,-0.0106,-0.0088,-0.0082,-0.0075,-0.0073,-0.0031,-0.0024,0.0005,0.0032,0.004,0.0037,0.0056,0.0113,0.0113,0.0112,0.006,0.0055,0.0052,0,0,0,0,0,-0.0144,-0.0152,-0.0147,-0.0144,-0.0122,-0.0106,-0.0102,-0.0082,-0.0075,-0.0075,-0.0048,-0.0025,0.0035,0.0034,0.0044,0.0041,0.0113,0.0113,0.0112,0.0061,0.0056,0.0052,0,0,0,0,0,0,-0.0165,-0.0149,-0.0143,-0.0146,-0.0131,-0.0102,-0.0102,-0.0087,-0.0067,-0.0066,-0.0026,-0.0016,0.0002,0.003,0.0027,0.0059,0.0078,0.0079,0.0036,0.0032,0.0028,0.0019,0.0059,0,0,0,0,0,-0.0173,-0.0177,-0.0155,-0.0159,-0.0154,-0.013,-0.0122,-0.011,-0.0087,-0.0078,-0.0049,-0.0018,0.0009,0.0025,0.0052,0.0071,0.0101,0.0076,0.0072,0.0068,0.0068,0.011,0.011,0.0111,0.0111,0.0111,0,0,-0.0182,-0.0175,-0.0176,-0.0164,-0.0152,-0.0151,-0.0125,-0.0119,-0.0116,-0.0071,-0.0061,-0.0031,0.001,0.0028,0.0039,0.0051,0.0082,0.0068,0.0064,0.0066,0.011,0.011,0.011,0.0111,0.0111,0.0111,0,0,-0.0204,-0.0197,-0.0208,-0.0199,-0.0186,-0.0171,-0.0172,-0.0148,-0.0136,-0.0122,-0.009,-0.0063,-0.0024,0.0006,0.0026,0.0019,0.0058,0.0025,0.0003,0.0043,0.0044,0.0044,0.0074,0.0078,0.0026,0.0026,0.0026,0,-0.0217,-0.0229,-0.0208,-0.0216,-0.0213,-0.0184,-0.0195,-0.0177,-0.0148,-0.0137,-0.0127,-0.0067,-0.0034,-0.0003,-0.0008,0.001,0.0036,0.0015,0.0038,0.0039,0.0041,0.0071,0.0076,0.0023,0.0023,0.0024,0.0024,0,-0.0245,-0.0255,-0.0261,-0.0263,-0.0256,-0.026,-0.0235,-0.0229,-0.0212,-0.0187,-0.0157,-0.011,-0.0073,-0.0059,-0.0036,-0.0009,0.0006,0.0025,0.0047,0.0037,0.007,0.0076,0.0019,0.002,0.0021,0.0022,0,0,-0.0271,-0.0281,-0.0284,-0.0298,-0.0283,-0.0283,-0.028,-0.0265,-0.0264,-0.0225,-0.0213,-0.0162,-0.013,-0.0105,-0.0067,-0.0031,-0.0001,-0.0004,-0.0,0.0021,0.0082,0.0083,0.0091,0.0022,0.0023,0.0024,0.0096,0,-0.0301,-0.0337,-0.0325,-0.0353,-0.0369,-0.0344,-0.0346,-0.0326,-0.0297,-0.0276,-0.0216,-0.0188,-0.0148,-0.0134,-0.009,-0.002,0.0014,-0.0023,0.0092,0.0095,0.0095,0.0097,0.0027,0.0101,0.0103,0.0104,0.0104,0,-0.0329,-0.0354,-0.0392,-0.0411,-0.0415,-0.0425,-0.0423,-0.0415,-0.037,-0.0348,-0.0299,-0.0247,-0.0184,-0.0155,-0.0036,-0.0062,0.0001,0.0055,0.006,0.0086,0.0109,0.0117,0.0116,0.0115,0.0114,0.0113,0.0113,0,-0.0365,-0.0396,-0.0434,-0.044,-0.0454,-0.0469,-0.0471,-0.0442,-0.0438,-0.0388,-0.0376,-0.0287,-0.0244,-0.015,-0.0031,-0.0035,0.01,0.0111,0.0171,0.0172,0.0173,0.0171,0.0186,0.0186,0.0186,0.0186,0.0186,0,-0.0397,-0.0427,-0.0461,-0.0482,-0.0532,-0.0515,-0.0546,-0.0532,-0.0506,-0.05,-0.0414,-0.0387,-0.0241,-0.0143,-0.0041,0.0088,0.0096,0.0168,0.0193,0.0146,0.0141,0.0177,0.0174,0.0189,0.0188,0.0188,0.0187,0,-0.0423,-0.0445,-0.0496,-0.0535,-0.0552,-0.0584,-0.061,-0.0625,-0.059,-0.0578,-0.0565,-0.0454,-0.0325,-0.0175,-0.0011,0.0071,0.0194,0.0235,0.017,0.019,0.0238,0.0232,0.0303,0.0304,0.0304,0.0305,0.0305,0,-0.0437,-0.0468,-0.054,-0.0584,-0.0607,-0.0655,-0.0689,-0.0676,-0.0679,-0.0619,-0.0613,-0.049,-0.0403,-0.0167,-0.0011,0.019,0.0216,0.0276,0.0259,0.0234,0.0252,0.0245,0.0238,0.0306,0.0306,0.0307,0.0307,0,-0.0463,-0.0494,-0.0538,-0.0633,-0.069,-0.0744,-0.0782,-0.079,-0.0761,-0.0736,-0.0651,-0.0518,-0.0367,-0.0177,-0.001,0.013,0.0237,0.0283,0.0282,0.0267,0.0239,0.0254,0.0247,0.0309,0.0309,0.0308,0.0308,0,-0.0478,-0.0523,-0.0591,-0.0668,-0.0746,-0.0802,-0.0822,-0.0819,-0.0813,-0.0736,-0.0712,-0.0539,-0.0435,-0.0208,-0.0059,0.0089,0.0118,0.0155,0.0161,0.0161,0.0102,0.0045,0.0077,0,0,0,0,0,-0.0486,-0.054,-0.062,-0.0704,-0.0783,-0.0825,-0.0866,-0.0871,-0.0846,-0.0796,-0.0749,-0.0609,-0.0368,-0.0259,-0.0113,-0.0052,0.0141,0.0123,0.0185,0.0321,0.0318,0.0274,0,0,0,0,0,0,-0.0495,-0.0571,-0.0616,-0.0714,-0.0775,-0.0854,-0.0883,-0.0871,-0.0832,-0.0788,-0.066,-0.0583,-0.0349,-0.0454,-0.0113,-0.0066,-0.001,0.0241,0.0244,0.0322,0.032,0.0318,0.0272,0,0,0,0,0]}]]